Regional Weather Roundup
Issued by NWS

Home | Current Version | Previous Version | Text Only | Print | Product List | Glossary On
Versions: 1 2 3 4 5 6 7 8 9 10 11 12 13 14 15 16 17 18 19 20 21 22 23 24 25 26 27 28 29 30 31 32 33 34 35 36 37 38 39 40 41 42 43 44 45 46 47 48 49 50
195
ASUS44 KJAN 200910
RWRMS

MISSISSIPPI HOURLY WEATHER ROUNDUP
NATIONAL WEATHER SERVICE JACKSON MS
400 AM CDT SUN APR 20 2014

NOTE: "FAIR: INDICATES FEW OR NO CLOUDS BELOW 12,000 FEET WITH NO
SIGNIFICANT WEATHER AND/OR OBSTRUCTIONS TO VISIBILITY.

MSZ001>002-007>008-010>013-018>021-025>028-034>036-201000-
NORTHWEST MISSISSIPPI

CITY           SKY/WX    TMP DP  RH WIND       PRES   REMARKS
CLARKSDALE       N/A     54  50  87 CALM      30.16R
CLEVELAND      FAIR      55  51  89 CALM      30.14R
GREENWOOD      CLEAR     50  48  93 NE5       30.15R
GREENVILLE     CLEAR     55  51  86 CALM      30.13S
GRENADA        FAIR      46  45  93 CALM      30.16R
OLIVE BRANCH   CLEAR     54  46  76 CALM      30.16S
OXFORD         FAIR      50  45  81 CALM      30.17S
TUNICA         SUNNY     50  46  87 CALM      30.16S
$$

MSZ003>006-009-014>017-022>024-029>033-037>039-201000-
NORTHEAST MISSISSIPPI

CITY           SKY/WX    TMP DP  RH WIND       PRES   REMARKS
BELMONT        FAIR      46  45  95 CALM      30.17R
COLUMBUS AFB   CLEAR     48  47  97 E1        30.16R
CORINTH        FAIR      46  45  93 CALM      30.17R
GOLDN TRIANGLE CLEAR     52  43  71 CALM      30.19R
STARKVILLE     FAIR      46  45  93 CALM      30.16R
TUPELO         CLEAR     51  47  86 CALM      30.16R
$$

MSZ040-058-201000-
CENTRAL MISSISSIPPI

CITY           SKY/WX    TMP DP  RH WIND       PRES   REMARKS
JACKSON INTL   CLEAR     51  50  96 CALM      30.15R FOG
JACKSON HAWKNS CLEAR     54  50  86 CALM      30.15R
MERIDIAN KEY   CLEAR     49  47  93 CALM      30.15R
MERIDIAN NAS   CLEAR     50  46  86 E3        30.16R
RAYMOND        FAIR      48  45  87 CALM      30.15R FOG
VICKSBURG      PTCLDY    58  56  93 CALM      30.14S FOG
$$

MSZ059>079-201000-
SOUTH MISSISSIPPI

CITY           SKY/WX    TMP DP  RH WIND       PRES   REMARKS
BROOKHAVEN     FAIR      52  50  93 CALM      30.15S
COLUMBIA       FAIR      48  48 100 MISG      30.14R FOG
HATTIESBURG    CLEAR     52  50  93 CALM      30.14R
MCCOMB         CLEAR     53  50  89 NW3       30.14R
NATCHEZ        PTCLDY    52  48  87 CALM      30.14R
PINE BELT      CLEAR     54  48  82 CALM      30.15R
$$

MSZ080>082-201000-
COASTAL MISSISSIPPI

CITY           SKY/WX    TMP DP  RH WIND       PRES   REMARKS
BILOXI         CLEAR     61  56  83 E5        30.12R
PASCAGOULA     CLEAR     53  52  96 CALM      30.12R
GULFPORT       CLEAR     58  52  80 CALM      30.12R
$$



USA.gov is the U.S. government's official web portal to all federal, state and local government web resources and services.